Preview of NWS' New Version of Forecast
This preview is not operational and should not be used for support decisions.

Regional Weather Roundup (RWR)

Issued by National Weather Service (NWS)

                            
000
ASUS46 KPQR 170810
RWROR 

OREGON REGIONAL WEATHER ROUNDUP
NATIONAL WEATHER SERVICE PORTLAND OR
1200 AM PST SUN FEB 17 2019

NOTE: "FAIR" INDICATES FEW OR NO CLOUDS BELOW 12,000 FEET WITH
NO SIGNIFICANT WEATHER AND/OR OBSTRUCTIONS TO VISIBILITY.

ORZ001>013-170900-
NORTHWEST OREGON

  
CITY           SKY/WX    TMP DP  RH WIND       PRES   REMARKS
ASTORIA        FAIR      34  33  96 SE7       29.96S                  
TILLAMOOK      MIX PCPN  34  32  93 CALM      30.02R                  
NEWPORT        CLOUDY    36  34  93 E5        30.04R                  
PORTLAND       CLOUDY    37  35  92 CALM      29.99R                  
VANCOUVER WA   MOCLDY    37  35  92 CALM      29.98S                  
SCAPPOOSE      CLOUDY    36  33  89 CALM      29.98S                  
HILLSBORO      MOCLDY    36  34  92 CALM      29.97S                  
AURORA         CLOUDY    36  35  96 CALM      30.00R                  
MCMINNVILLE    FAIR      33  32  96 NW5       29.98S                  
SALEM          MOCLDY    36  33  89 SW5       29.98S                  
CORVALLIS      MOCLDY    36  34  92 S5        30.01S                  
EUGENE         FAIR      34  32  92 S6        30.01S                  
$$

ORZ021-028-170900-
SOUTHWEST OREGON

  
CITY           SKY/WX    TMP DP  RH WIND       PRES   REMARKS
NORTH BEND     MOCLDY    37  35  92 SE13      30.06F WCI  29          
BROOKINGS      MOCLDY    35  34  96 CALM      30.06R                  
ROSEBURG       MOCLDY    35  34  96 SE3       30.02F                  
SEXTON SUMMIT  FLURRIES  25  24  96 CALM      29.88S                  
GRANTS PASS    FOG       34  34 100 CALM      30.03  VSB 1            
MEDFORD        LGT RAIN  36  32  85 SW3       29.99S                  
$$

ORZ014>016-041-170900-
COLUMBIA GORGE

  
CITY           SKY/WX    TMP DP  RH WIND       PRES   REMARKS
TROUTDALE      CLOUDY    37  34  89 CALM      29.99R                  
HOOD RIVER     FAIR      32  30  93 S3        29.94R                  
THE DALLES     FOG       30  27  88 CALM      29.93S VSB 3/4          
$$

ORZ029>031-041-044-049-050-061>064-502-503-505>511-170900-
EASTERN OREGON

  
CITY           SKY/WX    TMP DP  RH WIND       PRES   REMARKS
MADRAS         NOT AVBL                                               
REDMOND        CLOUDY    28  22  78 CALM      29.84S                  
BEND           FAIR      28  19  69 SW6       29.84S                  
PRINEVILLE     FAIR      25  21  86 CALM      29.84                   
KLAMATH FALLS  CLOUDY    25  21  85 SW3       29.87S                  
LAKEVIEW       FAIR      20  16  84 SE6       29.85S                  
HERMISTON      CLOUDY    32  30  92 CALM      29.91S FOG              
PENDLETON      LGT SNOW  31  30  96 SE5       29.87R VSB 1            
JOHN DAY       CLOUDY    29  28  94 SW3       29.82  FOG              
MEACHAM        LGT SNOW  27  24  89 SW5       29.78R VSB 1            
LA GRANDE      FLURRIES  30  29  96 W5        29.83R                  
BAKER CITY     CLOUDY    25  24  96 CALM      29.79  FOG              
BURNS          FAIR      22  16  78 W6        29.81S                  
ROME             N/A     30  23  75 SW5       29.81R                  
ONTARIO        CLOUDY    35  32  88 S5        29.85R                  
$$